Other Public Products
Issued by NWS Grand Forks, ND

Home | Current Version | Previous Version | Graphics & Text | Print | Product List | Glossary On
Versions: 1 2 3 4 5 6 7 8 9 10 11 12 13 14 15 16 17 18 19 20 21 22 23 24 25 26 27 28 29 30 31 32 33 34 35 36 37 38 39 40 41 42 43 44 45 46 47 48 49 50
000
FPUS83 KFGF 281110
OPUFGF
PRAIRIE TO PINES WEATHER ROUNDUP
NATIONAL WEATHER SERVICE EASTERN NORTH DAKOTA/GRAND FORKS ND
500 AM CST TUE FEB 28 2017

 **SATELLITE DATA USED TO AUGMENT SKY COVER AT AUTOMATED STATIONS**
 *****  WEATHER ACROSS EASTERN NORTH DAKOTA  *****

CITY           SKY/WX    TMP DP  RH WIND       PRES   REMARKS
GRAND FORKS    CLOUDY    13   5  70 N14       29.93S WCI  -2
GRAND FORKS AF CLOUDY    11   5  77 N14       29.93S WCI  -5
GRAND CITY NWS NOT AVBL
BUXTON         NOT AVBL
DEVILS LAKE    FLURRIES   0  -3  87 N6        29.91F WCI -12
FARGO          FAIR      20  17  88 N18       29.85R WCI   5
WAHPETON ARPT  CLOUDY    27  19  74 N17G23    29.79F WCI  14
$$

 *****  WEATHER ACROSS CENTRAL AND WESTERN NORTH DAKOTA  *****

CITY           SKY/WX    TMP DP  RH WIND       PRES   REMARKS
JAMESTOWN      FAIR      12   9  87 N12       29.84F WCI  -2
BISMARCK       CLOUDY    20  16  84 NE12      29.85R WCI   8
MINOT          FOG        6   4  91 E8        29.87F VSB 1/2 WCI  -7
MINOT AFB      FOG        5   1  85 E7        29.87F VSB 1/2 WCI  -7
GARRISON         N/A      6   3  87 NE5       29.83F WCI  -3
WILLISTON      CLOUDY    10   6  84 E3        29.82S
DICKINSON      CLOUDY    11   9  92 NE6       29.74R WCI   1
HETTINGER      CLOUDY    19  17  92 E8        29.75R FOG     WCI   9
$$

 *****  OTHER OBSERVATIONS NORTHEAST NORTH DAKOTA  *****

CITY           SKY/WX    TMP DP  RH WIND       PRES   REMARKS
WALHALLA       NOT AVBL
LANGDON        NOT AVBL
CAVALIER         N/A      5   1  85 N7        29.98F WCI  -7
GRAFTON        FAIR       7   1  78 N10       29.98S WCI  -8
CANDO          NOT AVBL
FORT TOTTEN      N/A      7   6  95 NE5       29.95S WCI  -2
ROLLA          FAIR       0  -2  92 N6        29.91R WCI -12
RUGBY            N/A     -2  -4  92 E9        29.90F WCI -18
 ***** THE ABOVE OBSERVATIONS ARE NON NWS ARE NOT QUALITY
        CONTROLLED AND MAY MIS-REPORT RAIN FOR SNOW...
$$

 *****  OTHER OBSERVATIONS SOUTHEAST NORTH DAKOTA *****

CITY           SKY/WX    TMP DP  RH WIND       PRES   REMARKS
COOPERSTOWN    FAIR       9   7  92 N10       29.87F WCI  -6
VALLEY CITY    FAIR      14  14 100 N7        29.86F WCI   4
OAKES          NOT AVBL
GWINNER        FAIR      19  19 100 N17       29.80F WCI   4
SHEYENNE NWR     N/A     18  15  87 N10       29.95S WCI   6
BUFFALO        NOT AVBL
WYNDMERE       NOT AVBL
 ***** THE ABOVE OBSERVATIONS ARE NON NWS ARE NOT QUALITY
       CONTROLLED AND MAY MIS-REPORT RAIN FOR SNOW...
$$

  *****  WEATHER ACROSS NORTHERN MINNESOTA  *****

CITY           SKY/WX    TMP DP  RH WIND       PRES   REMARKS
FLAG ISLAND    FAIR       9   3  78 N9        29.94S WCI  -5
WARROAD        FAIR       9   3  78 N9        29.93S WCI  -5
ROSEAU         FAIR       3  -2  78 N7        29.94R WCI  -9
HALLOCK        FAIR       7   1  78 N9        29.96F WCI  -7
THF RVR FALLS  CLOUDY    18  14  84 N12       29.90R WCI   5
HALSTAD          N/A     18  16  91 N14         N/A  WCI   4
FOSSTON        CLOUDY    18  14  86 N9        29.86R WCI   6
BAUDETTE       CLOUDY    17  12  80 N7        29.89F WCI   8
WASKISH        CLOUDY    21  18  86 NE9       29.87S WCI  11
CROOKSTON      CLOUDY    19  16  86 N8        29.91S WCI   9
$$
  *****  WEATHER ACROSS CENTRAL AND WEST MINNESOTA  *****

CITY           SKY/WX    TMP DP  RH WIND       PRES   REMARKS
BEMIDJI        FAIR      21  14  75 NE7       29.82S WCI  12
PARK RAPIDS    MOCLDY    25  13  60 N10       29.78F WCI  15
WADENA         FAIR      27  21  80 N9        29.76S WCI  17
DETROIT LAKES  FAIR      27  19  74 NE9       29.79F WCI  17
MOORHEAD       FAIR      19  18  93 N16       29.84F WCI   5
FERGUS FALLS   MOCLDY    27  21  80 N8        29.80F WCI  18
ELBOW LAKE     CLOUDY    29  27  90 N7        29.75F WCI  22
MORRIS MN      FAIR      30  28  93 N7        29.73F FOG     WCI  23
STAPLES        CLOUDY    28  25  86 N5        29.75F WCI  23
WHEATON        MOCLDY    27  21  80 N12       29.79S WCI  16
$$
  *****  WEATHER ELSEWHERE ACROSS MINNESOTA  *****

CITY           SKY/WX    TMP DP  RH WIND       PRES   REMARKS
DULUTH         LGT SNOW  28  27  96 E6        29.79F FOG     WCI  22
INTRNTL FALLS  CLOUDY    20  16  84 NE8       29.89R WCI  10
ELY            CLOUDY    25  23  93 NE5       29.82R WCI  19
CLOQUET        LGT SNOW  28  27  93 E3        29.79F
BRAINERD       CLOUDY    30  27  88 NE3       29.76F
HIBBING        CLOUDY    28  25  88 NE3       29.79S
ALEXANDRIA     CLOUDY    33  29  85 NE8       29.73F
SAINT CLOUD    CLOUDY    35  27  72 NE8       29.75F
MINNEAPOLIS    CLOUDY    37  30  75 VRB5      29.72F
$$

  *****  WEATHER ACROSS SOUTH DAKOTA  *****

CITY           SKY/WX    TMP DP  RH WIND       PRES   REMARKS
SIOUX FALLS    CLOUDY    35  31  85 NE9       29.67R
BROOKINGS      MOCLDY    31  28  89 NE13      29.69R WCI  21
WATERTOWN      LGT SNOW  26  24  92 NE12      29.71R FOG     WCI  16
HURON          CLOUDY    30  29  96 N9        29.73R WCI  22
SISSETON         N/A     24  21  88 N12       29.78S WCI  13
ABERDEEN       CLOUDY    22  17  81 N16       29.78R WCI   8
MITCHELL       FAIR      32  30  92 NE5       29.68R
PIERRE         CLOUDY    27  25  92 NE13      29.72F WCI  16
MOBRIDGE       CLOUDY    26  20  77 NE13      29.74F WCI  15
RAPID CITY     FOG       24  23  96 S7        29.64F VSB 1/2 WCI  16
$$

  *****  SOME WEATHER IN NEARBY STATES *****

CITY           SKY/WX    TMP DP  RH WIND       PRES   REMARKS
GLASGOW MT     FAIR       9   6  88 SE17      29.70F WCI  -9
GREAT FALLS MT FAIR      21  13  71 SW9       29.55S WCI  11
CHEYENNE WY    CLOUDY    23   9  55 NW12      29.66R WCI  12
SCOTTSBLUFF NE FAIR      30  15  53 W21       29.68F WCI  17
OMAHA NE       FAIR      45  37  73 S5        29.57R
DES MOINES IA  CLOUDY    53  44  71 SE9       29.63F
DAVENPORT IA   FAIR      49  46  90 S14       29.76F
CHICAGO IL     CLOUDY    50  45  83 S16G25    29.85S
EAU CLAIRE WI  CLOUDY    36  31  82 E6        29.75F
LA CROSSE WI   FAIR      43  37  79 SE10      29.76F
$$

  *****  SOME NATIONAL WEATHER *****

CITY           SKY/WX    TMP DP  RH WIND       PRES   REMARKS
LA GUARDIA NY  MOCLDY    46  36  68 E5        30.36R
RALEIGH NC     FAIR      53  48  83 S3        30.29F
ATLANTA GA     FAIR      52  46  80 SE5       30.28R
NEW ORLEANS LA MOCLDY    71  70  96 S13G21    30.10S
OKLAHOMA CITY  CLOUDY    60  58  92 S13       29.77R FOG
ALBUQUERQUE NM MOCLDY    48  30  49 SW14G25   29.82R
SALT LAKE CITY CLOUDY    24  18  77 SE8       29.82S WCI  15
LOS ANGELES CA FAIR      53  37  54 NW7       29.91R
BOISE ID       FAIR      26  22  84 SE8       29.80R WCI  18
SEATTLE WA     CLOUDY    34  32  92 CALM      29.84R
$$

*** WEATHER ACROSS MANITOBA...SASKATCHEWAN AND ONTARIO ***
                ***ONTARIO***

CITY           SKY/WX    TMP DP  RH WIND       PRES   REMARKS
GERALDTON      LGT SNOW  19  18  93 NW2       29.92S
THUNDER BAY    CLOUDY    23  21  93 SW3       29.89R
SIOUX LOOKOUT  MOCLDY     9   3  78 N3        29.94R
TORONTO        CLEAR     36  30  80 SE5       30.22F
BIG TROUT LK   CLEAR    -18 -22  83 W5        30.03S WCI -31
PICKLE LAKE    PTCLDY    -2  -6  84 VRB2      29.97
DRYDEN         MOCLDY     9   5  85 NE6       29.92S WCI  -1
KENORA         PTCLDY     3  -2  78 NE9       29.94S WCI -11
$$
                *** MANITOBA***

CITY           SKY/WX    TMP DP  RH WIND       PRES   REMARKS
BRANDON        PTCLDY    -9 -17  70 N2        29.95F
DAUPHIN        CLEAR     -4  -9  77 W8        29.97S WCI -19
ISLAND LAKE    NOT AVBL
PILOT MOUND      N/A      0  -4  85 NE2         N/A
THE PAS        CLEAR    -11 -17  77 CALM      29.91S
THOMPSON       CRYSTALS -35 -42  67 CALM      30.00S
WINNIPEG       CLEAR     -2  -6  84 N5        30.02S WCI -12
LYNN LAKE      PTCLDY   -31 -36  75 SW5       29.90S WCI -46
CHURCHILL      CRYSTALS -33 -40  68 W13       30.03S WCI -59
GILLAM         CLEAR    -29 -35  75 SW6       30.05R WCI -46
$$
                ***SASKATCHEWAN***

CITY           SKY/WX    TMP DP  RH WIND       PRES   REMARKS
ESTEVAN        CLEAR     -4  -8  84 E8        29.84F WCI -19
KINDERSLEY     MOCLDY    10   5  79 E9        29.69F WCI  -2
LLOYDMINSTER   MOCLDY     5   0  78 S8        29.70S WCI  -8
PRINCE ALBERT  PTCLDY    -8 -13  77 NE2       29.82S
REGINA         CLOUDY     3  -2  78 SE10      29.81F WCI -12
YORKTON        PTCLDY    -8 -11  84 S3        29.89R



USA.gov is the U.S. government's official web portal to all federal, state and local government web resources and services.